This is the latest recevied weather packets stored in our database for station/object DL6MAA-11. If no packets are shown the sender has not sent any weather packets the latest 10 day(s).
| Time | Temp. | Humidity | Pressure | Rain* | Wind** | Luminosity | Snow |
|---|---|---|---|---|---|---|---|
| 1777101129 | 10.56° C | 58% | 1015.2 hPa | 0 mm | - | 309 W/m² | - |
| 1777100816 | 10.56° C | 57% | 1015.2 hPa | 0 mm | - | 299 W/m² | - |
| 1777100524 | 10° C | 60% | 1015.2 hPa | 0 mm | - | 290 W/m² | - |
| 1777100232 | 9.44° C | 61% | 1015.3 hPa | 0 mm | - | 285 W/m² | - |
| 1777099919 | 9.44° C | 62% | 1015.3 hPa | 0 mm | - | 274 W/m² | - |
| 1777099618 | 8.89° C | 61% | 1015.3 hPa | 0 mm | - | 264 W/m² | - |
| 1777099322 | 8.89° C | 62% | 1015.7 hPa | 0 mm | - | 255 W/m² | - |
| 1777099028 | 8.33° C | 62% | 1015.7 hPa | 0 mm | - | 246 W/m² | - |
| 1777098735 | 8.33° C | 63% | 1015.7 hPa | 0 mm | - | 236 W/m² | - |
| 1777098419 | 7.78° C | 64% | 1015.8 hPa | 0 mm | - | 225 W/m² | - |
| 1777098120 | 7.22° C | 65% | 1015.8 hPa | 0 mm | - | 216 W/m² | - |
| 1777097823 | 7.22° C | 64% | 1015.8 hPa | 0 mm | - | 213 W/m² | - |
| 1777097524 | 7.22° C | 65% | 1015.4 hPa | 0 mm | - | 197 W/m² | - |
| 1777097226 | 6.67° C | 65% | 1015.4 hPa | 0 mm | - | 188 W/m² | - |
| 1777096930 | 6.67° C | 66% | 1015.4 hPa | 0 mm | - | 178 W/m² | - |
| 1777096616 | 5.56° C | 69% | 1015.5 hPa | 0 mm | - | 169 W/m² | - |
| 1777096321 | 5.56° C | 69% | 1015.5 hPa | 0 mm | - | 165 W/m² | - |
| 1777096026 | 5° C | 68% | 1015.5 hPa | 0 mm | - | 155 W/m² | - |
| 1777095734 | 4.44° C | 69% | 1015.6 hPa | 0 mm | - | 146 W/m² | - |
| 1777095420 | 4.44° C | 72% | 1015.6 hPa | 0 mm | - | 135 W/m² | - |
| 1777095122 | 3.89° C | 71% | 1015.6 hPa | 0 mm | - | 127 W/m² | - |
| 1777094827 | 3.89° C | 71% | 1014.9 hPa | 0 mm | - | 109 W/m² | - |
| 1777094526 | 3.33° C | 72% | 1014.9 hPa | 0 mm | - | 100 W/m² | - |
| 1777094226 | 2.78° C | 74% | 1014.9 hPa | 0 mm | - | 72 W/m² | - |
| 1777093914 | 2.22° C | 74% | 1015.6 hPa | 0 mm | - | 23 W/m² | - |
* Rain since midnight (hover to see other rain measurements)
** Current wind speed in m/s (hover to see current wind gust speed)